Accueil
METAR-TAF:

METAR-TAF

Aéroports :

Grafton, Australie

latitude: 29-45-36S, longitude: 153-01-48E, altitude: 34 m

Observation

Le bulletin a été fait il y a 24 minutes, à 11:00 UTC
Vent 4 kt de sud-ouest
Température 18°C
Humidité 88%
Pression 1020 hPa
Visibilité 10 km ou plus
Nuages fragmentés à une hauteur de 9200 ft

METAR: YGFN 211100Z AUTO 22004KT 9999 // BKN092 18/16 Q1020

Heure: 21:24 (11:24 UTC)


TAF: absent

Observations et prévisions météorologiques de plus de 4000 aéroports (messages METAR et TAF).

Les stations disponibles sont représentées par des disques jaunes et rouges sur la carte.

Passer la souris dessus pour voir le nom de la station.

Cliquer dessus pour voir les observations et prévisions météorologiques.

Pour changer de carte: cliquez sur les boutons verts avec une croix noire pour zoomer, sur le bouton vert avec un tiret pour effectuer un zoom arrière, ou sur les flèches vertes pour les cartes adjacentes.


METAR-TAF: